Terminal Aerodrome Forecast
Issued by NWS Mt. Holly, NJ

Home | Current Version | Previous Version | Text Only | Print | Product List | Glossary On
Versions: 1 2 3 4 5 6 7 8 9 10 11 12 13 14 15 16 17 18 19 20 21 22 23 24 25 26 27
000
FTUS41 KPHI 270200 AAA
TAFACY
TAF AMD
KACY 270215Z 2702/2724 32012G22KT P6SM OVC012
      TEMPO 2702/2704 4SM -SNRA BR SCT012 OVC040
     FM270700 32010KT P6SM BKN040
     FM271200 33005KT P6SM BKN050=

USA.gov is the U.S. government's official web portal to all federal, state and local government web resources and services.